Leesburg, VA

8:06 AM EDT on August 21, 2019 (GMT -0400)
Leesburg Executive

Weather History for KJYO - April, 2019

Change the Weather History Date:

Wednesday, April 24, 2019

  Actual Average (WUND) Record (WUND)
Temperature  
Mean Temperature 68 °F -  
Max Temperature 75 °F - - (-1)
Min Temperature 60 °F - - (-1)
Cooling Degree Days 2    
Growing Degree Days 18 (Base 50)    
Moisture  
Dew Point 49 °F    
Average Humidity 52    
Maximum Humidity 78    
Minimum Humidity 27    
Precipitation  
Precipitation 0.00 in - - ()
Sea Level Pressure  
Sea Level Pressure 29.86 in    
Wind  
Wind Speed 7 mph (NNW)    
Max Wind Speed 22 mph    
Max Gust Speed 24 mph    
Visibility 10 miles    
Events      
Averages and records for this station are not official NWS values.
T = Trace of Precipitation, MM = Missing Value Source: NWS Daily Summary

Daily Weather History Graph

Daily Weather History Graph

Search for Another Location

Airport or City:

Astronomy

Apr. 24, 2019 Rise Set
Actual Time 6:21 AM EDT 7:56 PM EDT
Civil Twilight 5:53 AM EDT 8:24 PM EDT
Nautical Twilight 5:19 AM EDT 8:58 PM EDT
Astronomical Twilight 4:42 AM EDT 9:34 PM EDT
Moon 12:32 AM EDT (4/24) 10:17 AM EDT (4/24)
Length of Visible Light 14h 31m
Length of Day
13h 34m
Waning Gibbous, 71% of the Moon is Illuminated
Apr 24
Waning Gibbous
Apr 26
Last Quarter
May 4
New
May 11
First Quarter
May 18
Full

Hourly Weather History & Observations

Time (EDT) Temp. Dew Point Humidity Pressure Visibility Wind Dir Wind Speed Gust Speed Precip Events Conditions
12:15 AM 69.8 °F 55.4 °F 60% 29.80 in 10.0 mi Calm Calm - N/A   Scattered Clouds
12:35 AM 69.8 °F 55.4 °F 60% 29.81 in 10.0 mi Calm Calm - N/A   Clear
12:55 AM 66.2 °F 57.2 °F 73% 29.82 in 10.0 mi SW 3.5 mph - N/A   Scattered Clouds
1:15 AM 68.0 °F 57.2 °F 68% 29.80 in 10.0 mi SW 3.5 mph - N/A   Scattered Clouds
1:35 AM 68.0 °F 59.0 °F 73% 29.81 in 10.0 mi WNW 5.8 mph - N/A   Scattered Clouds
1:55 AM 69.8 °F 59.0 °F 68% 29.80 in 10.0 mi WNW 12.7 mph 17.3 mph N/A   Mostly Cloudy
2:15 AM 71.6 °F 59.0 °F 64% 29.79 in 10.0 mi WNW 12.7 mph 17.3 mph N/A   Scattered Clouds
2:35 AM 71.6 °F 57.2 °F 60% 29.80 in 10.0 mi West 9.2 mph - N/A   Clear
2:55 AM 71.6 °F 57.2 °F 60% 29.80 in 10.0 mi SW 6.9 mph - N/A   Clear
3:15 AM 71.6 °F 59.0 °F 64% 29.80 in 10.0 mi West 8.1 mph - N/A   Clear
3:35 AM 71.6 °F 59.0 °F 64% 29.80 in 10.0 mi West 4.6 mph - N/A   Clear
3:55 AM 69.8 °F 59.0 °F 68% 29.80 in 10.0 mi West 5.8 mph - N/A   Clear
4:15 AM 69.8 °F 59.0 °F 68% 29.80 in 10.0 mi WNW 3.5 mph - N/A   Clear
4:35 AM 69.8 °F 59.0 °F 68% 29.80 in 10.0 mi WNW 5.8 mph - N/A   Clear
4:55 AM 69.8 °F 59.0 °F 68% 29.80 in 10.0 mi NNW 9.2 mph - N/A   Clear
5:10 AM 68.0 °F 60.8 °F 78% 29.80 in 10.0 mi NW 13.8 mph - N/A   Clear
5:35 AM 69.8 °F 59.0 °F 68% 29.80 in 10.0 mi NW 17.3 mph 20.7 mph N/A   Clear
5:55 AM 68.0 °F 57.2 °F 68% 29.81 in 10.0 mi NNW 13.8 mph - N/A   Clear
6:15 AM 68.0 °F 55.4 °F 64% 29.82 in 10.0 mi NW 16.1 mph 23.0 mph N/A   Clear
6:35 AM 68.0 °F 55.4 °F 64% 29.83 in 10.0 mi NW 17.3 mph 23.0 mph N/A   Clear
6:55 AM 68.0 °F 53.6 °F 60% 29.84 in 10.0 mi NNW 15.0 mph - N/A   Clear
7:15 AM 66.2 °F 53.6 °F 64% 29.86 in 10.0 mi NNW 12.7 mph 23.0 mph N/A   Clear
7:35 AM 64.4 °F 53.6 °F 68% 29.88 in 10.0 mi NNE 8.1 mph 17.3 mph N/A   Clear
7:55 AM 62.6 °F 51.8 °F 68% 29.89 in 10.0 mi North 4.6 mph 16.1 mph N/A   Scattered Clouds
8:15 AM 62.6 °F 51.8 °F 68% 29.90 in 10.0 mi NNE 9.2 mph - N/A   Clear
8:35 AM 62.6 °F 51.8 °F 68% 29.90 in 10.0 mi NNE 8.1 mph - N/A   Clear
8:55 AM 62.6 °F 50.0 °F 63% 29.90 in 10.0 mi North 11.5 mph - N/A   Clear
9:15 AM 62.6 °F 50.0 °F 63% 29.91 in 10.0 mi North 6.9 mph - N/A   Clear
9:35 AM 62.6 °F 50.0 °F 63% 29.92 in 10.0 mi North 8.1 mph - N/A   Clear
9:55 AM 62.6 °F 50.0 °F 63% 29.91 in 10.0 mi North 6.9 mph - N/A   Clear
10:15 AM 62.6 °F 50.0 °F 63% 29.91 in 10.0 mi NW 16.1 mph 23.0 mph N/A   Clear
10:35 AM 62.6 °F 50.0 °F 63% 29.91 in 10.0 mi NW 15.0 mph 24.2 mph N/A   Clear
10:55 AM 64.4 °F 46.4 °F 52% 29.92 in 10.0 mi NW 21.9 mph - N/A   Clear
11:15 AM 68.0 °F 50.0 °F 52% 29.91 in 10.0 mi NNW 15.0 mph 21.9 mph N/A   Clear
11:35 AM 66.2 °F 46.4 °F 49% 29.91 in 10.0 mi NW 15.0 mph 21.9 mph N/A   Clear
11:55 AM 68.0 °F 46.4 °F 46% 29.90 in 10.0 mi NW 18.4 mph 24.2 mph N/A   Clear
12:15 PM 69.8 °F 46.4 °F 43% 29.90 in 10.0 mi NW 15.0 mph 24.2 mph N/A   Clear
12:35 PM 71.6 °F 46.4 °F 41% 29.90 in 10.0 mi WNW 12.7 mph 20.7 mph N/A   Clear
12:55 PM 71.6 °F 42.8 °F 35% 29.89 in 10.0 mi North 18.4 mph 24.2 mph N/A   Clear
1:15 PM 71.6 °F 42.8 °F 35% 29.89 in 10.0 mi NNW 18.4 mph 23.0 mph N/A   Clear
1:35 PM 73.4 °F 42.8 °F 33% 29.88 in 10.0 mi North 13.8 mph 20.7 mph N/A   Clear
1:55 PM 73.4 °F 42.8 °F 33% 29.88 in 10.0 mi NW 10.4 mph 17.3 mph N/A   Clear
2:15 PM 73.4 °F 42.8 °F 33% 29.87 in 10.0 mi North 6.9 mph - N/A   Clear
2:35 PM 73.4 °F 42.8 °F 33% 29.87 in 10.0 mi North 6.9 mph - N/A   Clear
2:55 PM 73.4 °F 42.8 °F 33% 29.86 in 10.0 mi NNW 9.2 mph - N/A   Clear
3:15 PM 73.4 °F 41.0 °F 31% 29.86 in 10.0 mi NW 9.2 mph - N/A   Clear
3:35 PM 73.4 °F 41.0 °F 31% 29.86 in 10.0 mi North 11.5 mph - N/A   Clear
3:55 PM 75.2 °F 41.0 °F 29% 29.85 in 10.0 mi NNW 6.9 mph - N/A   Clear
4:15 PM 73.4 °F 41.0 °F 31% 29.85 in 10.0 mi WNW 5.8 mph 17.3 mph N/A   Clear
4:35 PM 73.4 °F 42.8 °F 33% 29.85 in 10.0 mi NW 6.9 mph - N/A   Clear
4:55 PM 75.2 °F 41.0 °F 29% 29.86 in 10.0 mi WNW 5.8 mph - N/A   Clear
5:15 PM 75.2 °F 41.0 °F 29% 29.86 in 10.0 mi NNW 4.6 mph - N/A   Clear
5:35 PM 73.4 °F 41.0 °F 31% 29.85 in 10.0 mi NW 8.1 mph - N/A   Clear
5:55 PM 73.4 °F 37.4 °F 27% 29.85 in 10.0 mi NW 6.9 mph - N/A   Clear
6:15 PM 73.4 °F 39.2 °F 29% 29.85 in 10.0 mi NNW 5.8 mph - N/A   Clear
6:35 PM 71.6 °F 41.0 °F 33% 29.86 in 10.0 mi NW 3.5 mph - N/A   Clear
6:50 PM 71.6 °F 42.8 °F 35% 29.86 in 10.0 mi NW 4.6 mph - N/A   Clear
7:15 PM 71.6 °F 41.0 °F 33% 29.86 in 10.0 mi NNW 5.8 mph - N/A   Clear
7:35 PM 68.0 °F 44.6 °F 43% 29.86 in 10.0 mi Calm Calm - N/A   Clear
7:50 PM 69.8 °F 42.8 °F 38% 29.86 in 10.0 mi Calm Calm - N/A   Clear
8:15 PM 66.2 °F 44.6 °F 46% 29.87 in 10.0 mi Calm Calm - N/A   Clear
8:35 PM 64.4 °F 46.4 °F 52% 29.88 in 10.0 mi Calm Calm - N/A   Clear
9:15 PM 64.4 °F 46.4 °F 52% 29.89 in 10.0 mi North 4.6 mph - N/A   Clear
9:35 PM 64.4 °F 46.4 °F 52% 29.90 in 10.0 mi NNE 3.5 mph - N/A   Clear
9:55 PM 62.6 °F 46.4 °F 55% 29.91 in 10.0 mi Calm Calm - N/A   Clear
10:15 PM 62.6 °F 46.4 °F 55% 29.91 in 10.0 mi Calm Calm - N/A   Clear
10:35 PM 64.4 °F 42.8 °F 45% 29.91 in 10.0 mi NNE 4.6 mph - N/A   Scattered Clouds
10:55 PM 60.8 °F 48.2 °F 63% 29.92 in 10.0 mi NNE 3.5 mph - N/A   Clear
11:15 PM 64.4 °F 42.8 °F 45% 29.92 in 10.0 mi Calm Calm - N/A   Clear
11:35 PM 60.8 °F 50.0 °F 68% 29.92 in 10.0 mi NNE 3.5 mph - N/A   Mostly Cloudy
11:55 PM 62.6 °F 46.4 °F 55% 29.92 in 10.0 mi Calm Calm - N/A   Overcast